This is the latest recevied weather packets stored in our database for station/object WB6ANP. If no packets are shown the sender has not sent any weather packets the latest 10 day(s).
| Time | Temp. | Humidity | Pressure | Rain* | Wind** | Luminosity | Snow |
|---|---|---|---|---|---|---|---|
| 1777848406 | 26.67° C | 29% | 1015.7 hPa | 0 mm | - | 267 W/m² | - |
| 1777848103 | 26.67° C | 30% | 1015.8 hPa | 0 mm | - | 327 W/m² | - |
| 1777847801 | 26.67° C | 29% | 1015.9 hPa | 0 mm | - | 426 W/m² | - |
| 1777847497 | 26.67° C | 28% | 1015.9 hPa | 0 mm | - | 458 W/m² | - |
| 1777847195 | 26.67° C | 29% | 1016.1 hPa | 0 mm | - | 463 W/m² | - |
| 1777846892 | 26.67° C | 29% | 1015.7 hPa | 0 mm | - | 468 W/m² | - |
| 1777846591 | 26.67° C | 31% | 1015.9 hPa | 0 mm | - | 516 W/m² | - |
| 1777846288 | 26.67° C | 30% | 1016 hPa | 0 mm | - | 451 W/m² | - |
| 1777845984 | 26.67° C | 29% | 1016 hPa | 0 mm | - | 576 W/m² | - |
| 1777845681 | 26.67° C | 32% | 1016.3 hPa | 0 mm | - | 434 W/m² | - |
| 1777845378 | 26.67° C | 31% | 1016.1 hPa | 0 mm | - | 392 W/m² | - |
| 1777845074 | 26.67° C | 31% | 1016.1 hPa | 0 mm | - | 480 W/m² | - |
| 1777844773 | 27.22° C | 30% | 1016.4 hPa | 0 mm | - | 479 W/m² | - |
| 1777844469 | 27.78° C | 29% | 1016.5 hPa | 0 mm | - | 545 W/m² | - |
| 1777844169 | 27.78° C | 29% | 1016.4 hPa | 0 mm | - | 583 W/m² | - |
| 1777843864 | 27.22° C | 30% | 1016.5 hPa | 0 mm | - | 649 W/m² | - |
| 1777843562 | 26.67° C | 30% | 1016.7 hPa | 0 mm | - | 670 W/m² | - |
| 1777843259 | 26.67° C | 30% | 1016.7 hPa | 0 mm | - | 676 W/m² | - |
| 1777842956 | 27.22° C | 31% | 1016.8 hPa | 0 mm | - | 657 W/m² | - |
| 1777842651 | 27.22° C | 30% | 1016.9 hPa | 0 mm | - | 687 W/m² | - |
| 1777842349 | 26.67° C | 29% | 1017.1 hPa | 0 mm | - | 711 W/m² | - |
| 1777842044 | 27.22° C | 29% | 1017.4 hPa | 0 mm | - | 718 W/m² | - |
| 1777841741 | 26.67° C | 29% | 1017.2 hPa | 0 mm | - | 708 W/m² | - |
| 1777841438 | 27.22° C | 29% | 1017.4 hPa | 0 mm | - | 731 W/m² | - |
| 1777841134 | 26.67° C | 30% | 1017.5 hPa | 0 mm | - | 742 W/m² | - |
* Rain latest hour (hover to see other rain measurements)
** Current wind speed in m/s (hover to see current wind gust speed)